This demonstration page uses our WeatherBlox Daily Observations layout. Learn more.

Hourly Observations for November 5, 2018

Temp ( °F °C ) Dew Point ( °F °C ) Humidity (%) Winds ( mph kmh ) Pressure ( in mb ) Visibility ( mi km ) Precip ( " mm )
12:15 am 00:15 Cloudy with Drizzle 43 6 37 3 81 81 SSE 13 20 29.68 1005 10 16.09344 0 0
12:35 am 00:35 Cloudy with Light Drizzle 43 5.9 38 3.3 84 84 S 12 19 29.71 1006 10 16.09344 0 0
12:55 am 00:55 Cloudy with Light Drizzle 42 5.8 38 3.6 86 86 S 13 20 29.65 1004 10 16.09344 0 0
1:15 am 01:15 Cloudy with Light Rain 42 5.8 39 3.8 87 87 S 16 26 29.65 1004 10 16.09344 0 0
1:35 am 01:35 Cloudy with Rain 42 5.7 40 4.3 91 91 S 14 22 29.65 1004 10 16.09344 0 0
1:55 am 01:55 Cloudy with Light Drizzle 43 6 40 4.5 90 90 S 14 22 29.65 1004 10 16.09344 0 0
2:15 am 02:15 Cloudy with Drizzle 42 5.8 41 4.8 93 93 S 15 24 29.65 1004 10 16.09344 0 0
2:35 am 02:35 Cloudy with Drizzle 42 5.8 41 5.1 95 95 S 15 24 29.65 1004 10 16.09344 0.01 0.254
2:55 am 02:55 Cloudy with Drizzle 42 5.8 41 5.2 96 96 S 14 22 29.62 1003 10 16.09344 0.01 0.254
3:15 am 03:15 Cloudy with Rain 42 5.8 42 5.3 97 97 S 13 20 29.62 1003 10 16.09344 0.01 0.254
3:35 am 03:35 Cloudy with Drizzle 42 5.8 42 5.3 97 97 S 12 19 29.62 1003 10 16.09344 0.01 0.254
3:55 am 03:55 Cloudy with Light Rain 42 5.8 42 5.5 98 98 S 10 17 29.62 1003 10 16.09344 0.01 0.254
4:15 am 04:15 Cloudy with Drizzle 42 5.8 42 5.6 99 99 S 10 17 29.62 1003 10 16.09344 0 0
4:35 am 04:35 Cloudy with Light Drizzle 42 5.8 42 5.7 99 99 S 9 15 29.59 1002 10 16.09344 0 0
4:55 am 04:55 Cloudy with Light Rain 42 5.8 42 5.7 99 99 SSW 8 13 29.59 1002 10 16.09344 0 0
5:15 am 05:15 Cloudy with Light Drizzle 42 5.8 42 5.7 99 99 SSW 8 13 29.59 1002 10 16.09344 0 0
5:35 am 05:35 Cloudy with Light Drizzle 42 5.8 42 5.8 100 100 SSW 3 6 29.59 1002 10 16.09344 0 0
5:55 am 05:55 Cloudy with Light Drizzle 42 5.8 42 5.8 100 100 SSW 6 9 29.59 1002 10 16.09344 0 0
6:15 am 06:15 Mostly Cloudy 42 5.6 42 5.6 100 100 SSW 6 9 29.59 1002 10 16.09344 0 0
6:35 am 06:35 Partly Cloudy 42 5.5 42 5.5 100 100 SW 5 7 29.59 1002 10 16.09344 0 0
6:55 am 06:55 Clear 42 5.3 42 5.3 100 100 SW 3 6 29.59 1002 10 16.09344 0 0
7:15 am 07:15 Partly Cloudy 41 5.2 41 5.2 100 100 W 5 7 29.59 1002 10 16.09344 0 0
7:35 am 07:35 Sunny 41 5.2 41 5 99 99 W 7 11 29.59 1002 10 16.09344 0 0
7:55 am 07:55 Sunny 41 5 40 4.5 97 97 W 9 15 29.65 1004 10 16.09344 0 0
8:15 am 08:15 Sunny 42 5.5 40 4.7 95 95 WNW 7 11 29.62 1003 10 16.09344 0 0
8:35 am 08:35 Sunny 43 6 41 5.1 94 94 WNW 7 11 29.62 1003 10 16.09344 0 0
8:55 am 08:55 Sunny 45 7.4 43 6.3 93 93 WNW 12 19 29.62 1003 10 16.09344 0 0
9:15 am 09:15 Sunny 47 8.6 44 6.8 89 89 NW 16 26 29.62 1003 10 16.09344 0 0
9:35 am 09:35 Sunny 49 9.2 44 6.8 85 85 NW 18 30 29.62 1003 10 16.09344 0 0
9:55 am 09:55 Sunny 49 9.4 44 6.5 82 82 NW 16 26 29.62 1003 10 16.09344 0 0
10:15 am 10:15 Sunny 50 9.8 44 6.5 80 80 NW 15 24 29.62 1003 10 16.09344 0 0
10:35 am 10:35 Sunny 51 10.4 44 6.5 77 77 NW 17 28 29.62 1003 10 16.09344 0 0
10:55 am 10:55 Partly Cloudy 52 11 44 6.5 74 74 NW 17 28 29.62 1003 10 16.09344 0 0
11:15 am 11:15 Mostly Cloudy 53 11.5 42 5.8 68 68 NNW 21 33 29.62 1003 10 16.09344 0 0
11:35 am 11:35 Cloudy 53 11.8 42 5.3 65 65 NNW 21 33 29.62 1003 10 16.09344 0 0
11:55 am 11:55 Mostly Cloudy 53 11.9 41 4.8 62 62 NW 25 41 29.62 1003 10 16.09344 0 0
12:15 pm 12:15 Mostly Cloudy 55 12.5 39 4.1 57 57 NW 22 35 29.59 1002 10 16.09344 0 0
12:35 pm 12:35 Mostly Cloudy 53 11.8 40 4.2 60 60 NW 22 35 29.62 1003 10 16.09344 0 0
12:55 pm 12:55 Cloudy 54 12.3 38 3.3 54 54 NW 22 35 29.62 1003 10 16.09344 0 0
1:15 pm 13:15 Cloudy 56 13.5 38 3.5 51 51 NW 24 39 29.59 1002 10 16.09344 0 0
1:35 pm 13:35 Cloudy 55 12.8 37 3 52 52 NW 21 33 29.59 1002 10 16.09344 0 0
1:55 pm 13:55 Cloudy 55 13 38 3.3 52 52 NNW 20 31 29.59 1002 10 16.09344 0 0
2:15 pm 14:15 Mostly Cloudy 54 12.4 37 2.9 53 53 NW 21 33 29.59 1002 10 16.09344 0 0
2:35 pm 14:35 Mostly Cloudy 57 13.8 37 3 48 48 NW 21 33 29.59 1002 10 16.09344 0 0
2:55 pm 14:55 Mostly Cloudy 54 12.4 37 2.6 52 52 NW 20 31 29.65 1004 10 16.09344 0 0
3:15 pm 15:15 Partly Cloudy 56 13.2 36 2.3 48 48 NNW 23 37 29.62 1003 10 16.09344 0 0
3:35 pm 15:35 Sunny 55 12.9 37 2.6 50 50 NNW 18 30 29.68 1005 10 16.09344 0 0
3:55 pm 15:55 Sunny 55 12.6 37 2.7 51 51 NW 21 33 29.68 1005 10 16.09344 0 0
4:15 pm 16:15 Sunny 54 12.3 36 2.2 50 50 NNW 18 30 29.68 1005 10 16.09344 0 0
4:35 pm 16:35 Sunny 53 11.7 37 2.5 54 54 NW 20 31 29.68 1005 10 16.09344 0 0
4:55 pm 16:55 Sunny 52 11 37 2.5 56 56 NW 12 19 29.68 1005 10 16.09344 0 0
5:15 pm 17:15 Sunny 50 10.2 37 2.5 59 59 NW 7 11 29.71 1006 10 16.09344 0 0
5:35 pm 17:35 Clear 47 8.6 37 2.5 66 66 NW 7 11 29.74 1007 10 16.09344 0 0
5:55 pm 17:55 Clear 45 7.2 36 2.4 72 72 NW 5 7 29.74 1007 10 16.09344 0 0
6:15 pm 18:15 Clear 42 5.6 34 1.3 74 74 NW 3 6 29.8 1009 10 16.09344 0 0
6:35 pm 18:35 Clear 41 5.2 34 1.3 76 76 WNW 5 7 29.8 1009 10 16.09344 0 0
6:55 pm 18:55 Clear 42 5.3 34 1.1 75 75 WNW 7 11 29.83 1010 10 16.09344 0 0
7:15 pm 19:15 Clear 41 5 34 1.1 76 76 NW 9 15 29.83 1010 10 16.09344 0 0
7:35 pm 19:35 Clear 44 6.6 33 0.7 66 66 NNW 9 15 29.83 1010 10 16.09344 0 0
7:55 pm 19:55 Clear 42 5.8 33 0.3 68 68 NW 7 11 29.83 1010 10 16.09344 0 0
8:15 pm 20:15 Clear 40 4.5 32 0 73 73 WNW 6 9 29.83 1010 10 16.09344 0 0
8:35 pm 20:35 Clear 40 4.5 32 -0.2 72 72 WNW 6 9 29.83 1010 10 16.09344 0 0
8:55 pm 20:55 Clear 38 3.4 31 -0.7 75 75 WNW 6 9 29.85 1011 10 16.09344 0 0
9:15 pm 21:15 Clear 39 3.8 31 -0.5 74 74 WNW 7 11 29.85 1011 10 16.09344 0 0
9:35 pm 21:35 Clear 37 3 30 -1 75 75 WNW 8 13 29.88 1012 10 16.09344 0 0
9:55 pm 21:55 Clear 38 3.2 30 -1 74 74 W 5 7 29.88 1012 10 16.09344 0 0
10:15 pm 22:15 Clear 38 3.3 30 -1 74 74 WNW 6 9 29.88 1012 10 16.09344 0 0
10:35 pm 22:35 Clear 37 2.8 30 -1.3 75 75 NW 7 11 29.88 1012 10 16.09344 0 0
10:55 pm 22:55 Clear 34 1.3 29 -1.7 81 81 WNW 8 13 29.88 1012 10 16.09344 0 0
11:15 pm 23:15 Clear 34 1 29 -1.7 82 82 WNW 7 11 29.88 1012 10 16.09344 0 0
11:35 pm 23:35 Clear 33 0.8 29 -1.8 83 83 NNW 3 6 29.91 1013 10 16.09344 0 0
11:55 pm 23:55 Clear 33 0.8 29 -1.5 85 85 NW 5 7 29.91 1013 10 16.09344 0 0

Powered by AerisWeather